This demonstration page uses our WeatherBlox Daily Observations layout. Learn more.

39.08367, -84.50855

Hourly Observations for July 1, 2019

Temp ( °F °C ) Dew Point ( °F °C ) Humidity (%) Winds ( mph kmh ) Pressure ( in mb ) Visibility ( mi km ) Precip ( " mm )
12:53 am 00:53 Clear 74 23.3 69 20.6 85 85 VRB 3 6 29.97 1015 10 16.09344 0 0
1:53 am 01:53 Clear 71 21.7 69 20.6 94 94 Calm 29.97 1015 10 16.09344 0 0
2:53 am 02:53 Clear with Mist and Fog 69 20.6 68 20 96 96 Calm 29.97 1015 6 9.656064 0 0
3:53 am 03:53 Clear 70 21.1 68 20 93 93 S 5 7 29.94 1014 10 16.09344 0 0
4:53 am 04:53 Clear with Mist and Fog 68 20 68 20 100 100 SW 3 6 29.97 1015 4 6.437376 0 0
5:53 am 05:53 Clear with Mist and Fog 68 20 67 19.4 96 96 Calm 29.97 1015 5 8.04672 0 0
6:15 am 06:15 Clear with Mist and Fog 68 20 67 19.4 96 96 Calm 30 1016 1.25 2.01168 0 0
6:25 am 06:25 Mostly Cloudy with Fog 68 20 67 19.4 96 96 Calm 30 1016 0.5 0.804672 0 0
6:32 am 06:32 Sunny with Fog 68 20 67 19.4 96 96 Calm 30 1016 0.5 0.804672 0 0
6:36 am 06:36 Sunny with Mist and Fog 68 20 67 19.4 96 96 Calm 30 1016 2 3.218688 0 0
6:43 am 06:43 Sunny with Mist and Fog 68 20 67 19.4 96 96 Calm 30 1016 3 4.828032 0 0
6:45 am 06:45 Sunny with Mist and Fog 68 20 67 19.4 96 96 Calm 30 1016 1.25 2.01168 0 0
6:53 am 06:53 Sunny with Fog 67 19.4 67 19.4 100 100 SW 3 6 30 1016 0.5 0.804672 0 0
7:00 am 07:00 Sunny with Mist and Fog 67 19.4 67 19.4 100 100 SW 5 7 30 1016 4 6.437376 0 0
7:41 am 07:41 Partly Cloudy with Mist and Fog 71 21.7 70 21.1 96 96 SSW 3 6 30 1016 4 6.437376 0 0
7:53 am 07:53 Sunny with Mist and Fog 71 21.7 70 21.1 96 96 S 3 6 30.03 1017 4 6.437376 0 0
8:53 am 08:53 Sunny 75 23.9 70 21.1 84 84 WSW 3 6 30.03 1017 10 16.09344 0 0
9:53 am 09:53 Sunny 78 25.6 70 21.1 76 76 Calm 30.03 1017 10 16.09344 0 0
10:53 am 10:53 Sunny 82 27.8 70 21.1 67 67 VRB 5 7 30.03 1017 10 16.09344 0 0
11:53 am 11:53 Sunny 85 29.4 69 20.6 59 59 WSW 7 11 30 1016 10 16.09344 0 0
12:53 pm 12:53 Sunny 86 30 68 20 55 55 W 6 9 30 1016 10 16.09344 0 0
1:53 pm 13:53 Sunny 87 30.6 68 20 53 53 W 8 13 29.97 1015 10 16.09344 0 0
2:53 pm 14:53 Partly Cloudy 88 31.1 69 20.6 54 54 WSW 9 15 29.97 1015 10 16.09344 0 0
3:53 pm 15:53 Partly Cloudy 88 31.1 69 20.6 54 54 WSW 8 13 29.97 1015 10 16.09344 0 0
4:53 pm 16:53 Mostly Cloudy 87 30.6 66 18.9 50 50 NW 7 11 29.94 1014 10 16.09344 0 0
5:53 pm 17:53 Mostly Cloudy 87 30.6 67 19.4 51 51 NW 7 11 29.94 1014 10 16.09344 0 0
6:53 pm 18:53 Mostly Cloudy 88 31.1 67 19.4 50 50 NW 6 9 29.91 1013 10 16.09344 0 0
7:53 pm 19:53 Mostly Sunny 87 30.6 67 19.4 51 51 NW 3 6 29.91 1013 10 16.09344 0 0
8:53 pm 20:53 Sunny 79 26.1 73 22.8 82 82 Calm 29.91 1013 10 16.09344 0 0
9:53 pm 21:53 Clear 74 23.3 71 21.7 91 91 S 7 11 29.94 1014 10 16.09344 0.001 0.001
10:53 pm 22:53 Clear 74 23.3 70 21.1 88 88 Calm 29.94 1014 10 16.09344 0 0
11:53 pm 23:53 Clear 75 23.9 71 21.7 88 88 Calm 29.94 1014 10 16.09344 0 0

Powered by AerisWeather